International Skating Union - Official Site

Essent ISU World Cup Calgary
December 4-6, 2009

Draw | Lap Times | Index | World Cup

Referee: Dan  IMMERFALL  (USA)
Starter: Yves  BELANGER  (CAN)
StartTime: EndTime: Air Temp: Ice Temp: Humidity:
18:20 20:04 15.6℃ -8.1℃ 24%
Result 5000m Men Division B
Rankings as of Dec 6 2009 3:54PM
Rank: No.: Name: Nation: Time: Behind: Points:
1 100 Jan  BLOKHUIJSEN NED NED 6:15.84200m - 18.19 - (18.1)
600m - 46.82 - (28.6)
1000m - 1:15.98 - (29.1)
1400m - 1:45.35 - (29.3)
1800m - 2:14.74 - (29.3)
2200m - 2:44.25 - (29.5)
2600m - 3:13.84 - (29.5)
3000m - 3:43.74 - (29.9)
3400m - 4:13.68 - (29.9)
3800m - 4:43.91 - (30.2)
4200m - 5:14.19 - (30.2)
4600m - 5:44.56 - (30.3)
5000m - 6:15.84 - (31.2)
25
2 124 Sverre  HAUGLI NOR NOR 6:18.09200m - 18.87 - (18.8)
600m - 47.69 - (28.8)
1000m - 1:17.13 - (29.4)
1400m - 1:46.96 - (29.8)
1800m - 2:16.87 - (29.9)
2200m - 2:46.95 - (30.0)
2600m - 3:16.87 - (29.9)
3000m - 3:46.86 - (29.9)
3400m - 4:16.81 - (29.9)
3800m - 4:46.65 - (29.8)
4200m - 5:16.65 - (30.0)
4600m - 5:47.02 - (30.3)
5000m - 6:18.09 - (31.0)
2.25 19
3 71 Luca  STEFANI ITA ITA 6:20.71200m - 18.83 - (18.8)
600m - 48.89 - (30.0)
1000m - 1:19.03 - (30.1)
1400m - 1:49.43 - (30.4)
1800m - 2:19.55 - (30.1)
2200m - 2:50.17 - (30.6)
2600m - 3:20.67 - (30.5)
3000m - 3:51.18 - (30.5)
3400m - 4:21.62 - (30.4)
3800m - 4:51.89 - (30.2)
4200m - 5:21.66 - (29.7)
4600m - 5:51.27 - (29.6)
5000m - 6:20.71 - (29.4)
4.87 15
4 50 Patrick  BECKERT GER GER 6:20.84200m - 19.21 - (19.2)
600m - 48.67 - (29.4)
1000m - 1:18.41 - (29.7)
1400m - 1:48.30 - (29.8)
1800m - 2:18.72 - (30.4)
2200m - 2:49.14 - (30.4)
2600m - 3:19.72 - (30.5)
3000m - 3:49.89 - (30.1)
3400m - 4:20.25 - (30.3)
3800m - 4:50.59 - (30.3)
4200m - 5:21.07 - (30.4)
4600m - 5:50.96 - (29.8)
5000m - 6:20.84 - (29.8)
5.00 11
5 60 Tobias  SCHNEIDER GER GER 6:22.08200m - 19.16 - (19.1)
600m - 49.21 - (30.0)
1000m - 1:19.80 - (30.5)
1400m - 1:50.24 - (30.4)
1800m - 2:20.52 - (30.2)
2200m - 2:50.90 - (30.3)
2600m - 3:21.62 - (30.7)
3000m - 3:52.18 - (30.5)
3400m - 4:21.96 - (29.7)
3800m - 4:51.75 - (29.7)
4200m - 5:21.71 - (29.9)
4600m - 5:51.73 - (30.0)
5000m - 6:22.08 - (30.3)
6.24 8
6 98 Haralds  SILOVS LAT LAT 6:22.43200m - 18.52 - (18.5)
600m - 47.62 - (29.1)
1000m - 1:18.01 - (30.3)
1400m - 1:48.93 - (30.9)
1800m - 2:19.56 - (30.6)
2200m - 2:50.03 - (30.4)
2600m - 3:20.66 - (30.6)
3000m - 3:51.39 - (30.7)
3400m - 4:22.07 - (30.6)
3800m - 4:52.59 - (30.5)
4200m - 5:22.92 - (30.3)
4600m - 5:52.89 - (29.9)
5000m - 6:22.43 - (29.5)
6.59 6
7 164 Brian  HANSEN USA USA 6:23.44200m - 19.15 - (19.1)
600m - 48.81 - (29.6)
1000m - 1:19.00 - (30.1)
1400m - 1:49.19 - (30.1)
1800m - 2:19.42 - (30.2)
2200m - 2:49.88 - (30.4)
2600m - 3:20.22 - (30.3)
3000m - 3:50.34 - (30.1)
3400m - 4:20.85 - (30.5)
3800m - 4:51.38 - (30.5)
4200m - 5:21.94 - (30.5)
4600m - 5:52.52 - (30.5)
5000m - 6:23.44 - (30.9)
7.60 4
8 72 Shigeyuki  DEJIMA JPN JPN 6:24.13200m - 19.10 - (19.1)
600m - 48.96 - (29.8)
1000m - 1:19.36 - (30.4)
1400m - 1:49.74 - (30.3)
1800m - 2:20.20 - (30.4)
2200m - 2:50.72 - (30.5)
2600m - 3:21.06 - (30.3)
3000m - 3:51.53 - (30.4)
3400m - 4:21.65 - (30.1)
3800m - 4:51.99 - (30.3)
4200m - 5:22.59 - (30.6)
4600m - 5:53.26 - (30.6)
5000m - 6:24.13 - (30.8)
8.29 2
9 166 Jonathan  KUCK USA USA 6:25.05200m - 19.33 - (19.3)
600m - 49.01 - (29.6)
1000m - 1:19.18 - (30.1)
1400m - 1:49.69 - (30.5)
1800m - 2:19.94 - (30.2)
2200m - 2:50.20 - (30.2)
2600m - 3:20.63 - (30.4)
3000m - 3:51.09 - (30.4)
3400m - 4:21.69 - (30.6)
3800m - 4:52.40 - (30.7)
4200m - 5:23.00 - (30.6)
4600m - 5:54.06 - (31.0)
5000m - 6:25.05 - (30.9)
9.21 1
10 161 Ryan  BEDFORD USA USA 6:25.49200m - 19.40 - (19.4)
600m - 49.16 - (29.7)
1000m - 1:19.39 - (30.2)
1400m - 1:49.63 - (30.2)
1800m - 2:19.83 - (30.2)
2200m - 2:50.19 - (30.3)
2600m - 3:20.71 - (30.5)
3000m - 3:51.26 - (30.5)
3400m - 4:21.95 - (30.6)
3800m - 4:52.64 - (30.6)
4200m - 5:23.31 - (30.6)
4600m - 5:54.28 - (30.9)
5000m - 6:25.49 - (31.2)
9.65 0
11 66 Matteo  ANESI ITA ITA 6:28.37200m - 19.07 - (19.0)
600m - 49.15 - (30.0)
1000m - 1:19.36 - (30.2)
1400m - 1:50.18 - (30.8)
1800m - 2:20.27 - (30.0)
2200m - 2:50.53 - (30.2)
2600m - 3:21.01 - (30.4)
3000m - 3:51.42 - (30.4)
3400m - 4:22.14 - (30.7)
3800m - 4:52.92 - (30.7)
4200m - 5:24.16 - (31.2)
4600m - 5:56.07 - (31.9)
5000m - 6:28.37 - (32.3)
12.53 0
12 137 Jan  SZYMANSKI POL POL 6:29.13200m - 19.53 - (19.5)
600m - 50.12 - (30.5)
1000m - 1:21.29 - (31.1)
1400m - 1:52.00 - (30.7)
1800m - 2:22.89 - (30.8)
2200m - 2:53.67 - (30.7)
2600m - 3:24.92 - (31.2)
3000m - 3:56.00 - (31.0)
3400m - 4:26.91 - (30.9)
3800m - 4:57.48 - (30.5)
4200m - 5:27.85 - (30.3)
4600m - 5:58.50 - (30.6)
5000m - 6:29.13 - (30.6)
13.29 0
13 133 Slawomir  CHMURA POL POL 6:29.63200m - 19.54 - (19.5)
600m - 50.01 - (30.4)
1000m - 1:20.70 - (30.6)
1400m - 1:51.38 - (30.6)
1800m - 2:22.05 - (30.6)
2200m - 2:52.79 - (30.7)
2600m - 3:23.38 - (30.5)
3000m - 3:54.10 - (30.7)
3400m - 4:25.02 - (30.9)
3800m - 4:56.23 - (31.2)
4200m - 5:27.64 - (31.4)
4600m - 5:59.10 - (31.4)
5000m - 6:29.63 - (30.5)
13.79 0
14 12 Steven  ELM CAN CAN 6:29.76200m - 19.30 - (19.3)
600m - 48.99 - (29.6)
1000m - 1:19.09 - (30.1)
1400m - 1:49.06 - (29.9)
1800m - 2:19.33 - (30.2)
2200m - 2:49.59 - (30.2)
2600m - 3:19.90 - (30.3)
3000m - 3:50.60 - (30.7)
3400m - 4:21.79 - (31.1)
3800m - 4:53.11 - (31.3)
4200m - 5:24.95 - (31.8)
4600m - 5:57.16 - (32.2)
5000m - 6:29.76 - (32.6)
13.92 0
15 135 Sebastian  DRUSZKIEWICZ POL POL 6:30.17200m - 19.43 - (19.4)
600m - 48.69 - (29.2)
1000m - 1:18.61 - (29.9)
1400m - 1:48.41 - (29.8)
1800m - 2:18.50 - (30.0)
2200m - 2:48.68 - (30.1)
2600m - 3:19.50 - (30.8)
3000m - 3:50.52 - (31.0)
3400m - 4:21.94 - (31.4)
3800m - 4:53.76 - (31.8)
4200m - 5:26.04 - (32.2)
4600m - 5:58.63 - (32.5)
5000m - 6:30.17 - (31.5)
14.33 0
16 59 Robert  LEHMANN GER GER 6:30.66200m - 18.55 - (18.5)
600m - 47.77 - (29.2)
1000m - 1:17.53 - (29.7)
1400m - 1:47.47 - (29.9)
1800m - 2:17.57 - (30.1)
2200m - 2:47.77 - (30.2)
2600m - 3:18.57 - (30.8)
3000m - 3:49.75 - (31.1)
3400m - 4:21.32 - (31.5)
3800m - 4:52.84 - (31.5)
4200m - 5:25.02 - (32.1)
4600m - 5:57.41 - (32.3)
5000m - 6:30.66 - (33.2)
14.82 0
17 32 Longjiang  SUN CHN CHN 6:30.70200m - 19.98 - (19.9)
600m - 50.61 - (30.6)
1000m - 1:20.83 - (30.2)
1400m - 1:51.22 - (30.3)
1800m - 2:21.56 - (30.3)
2200m - 2:52.11 - (30.5)
2600m - 3:22.42 - (30.3)
3000m - 3:52.62 - (30.2)
3400m - 4:23.20 - (30.5)
3800m - 4:54.37 - (31.1)
4200m - 5:26.04 - (31.6)
4600m - 5:58.37 - (32.3)
5000m - 6:30.70 - (32.3)
14.86 0
18 148 Aleksandr  RUMYANTSEV RUS RUS 6:31.38200m - 19.12 - (19.1)
600m - 49.17 - (30.0)
1000m - 1:20.09 - (30.9)
1400m - 1:51.23 - (31.1)
1800m - 2:22.07 - (30.8)
2200m - 2:52.74 - (30.6)
2600m - 3:23.74 - (31.0)
3000m - 3:54.85 - (31.1)
3400m - 4:25.82 - (30.9)
3800m - 4:56.53 - (30.7)
4200m - 5:27.76 - (31.2)
4600m - 5:59.42 - (31.6)
5000m - 6:31.38 - (31.7)
15.54 0
19 82 Dmitry  BABENKO KAZ KAZ 6:31.64200m - 18.83 - (18.8)
600m - 48.48 - (29.6)
1000m - 1:20.53 - (32.0)
1400m - 1:51.32 - (30.7)
1800m - 2:22.50 - (31.1)
2200m - 2:53.48 - (30.9)
2600m - 3:25.09 - (31.6)
3000m - 3:56.03 - (30.9)
3400m - 4:26.99 - (30.9)
3800m - 4:58.17 - (31.1)
4200m - 5:29.73 - (31.5)
4600m - 6:00.55 - (30.8)
5000m - 6:31.64 - (30.8)
15.80 0
20 11 Jordan  BELCHOS CAN CAN 6:33.71200m - 19.35 - (19.3)
600m - 49.05 - (29.7)
1000m - 1:19.05 - (30.0)
1400m - 1:49.20 - (30.1)
1800m - 2:19.78 - (30.5)
2200m - 2:50.41 - (30.6)
2600m - 3:21.43 - (31.0)
3000m - 3:52.91 - (31.4)
3400m - 4:24.59 - (31.6)
3800m - 4:56.63 - (32.0)
4200m - 5:28.89 - (32.2)
4600m - 6:01.25 - (32.3)
5000m - 6:33.71 - (32.4)
17.87 0
21 8 Kris  SCHILDERMANS BEL BEL 6:33.87200m - 19.53 - (19.5)
600m - 50.48 - (30.9)
1000m - 1:21.59 - (31.1)
1400m - 1:52.93 - (31.3)
1800m - 2:24.04 - (31.1)
2200m - 2:55.59 - (31.5)
2600m - 3:26.62 - (31.0)
3000m - 3:57.79 - (31.1)
3400m - 4:28.64 - (30.8)
3800m - 4:59.62 - (30.9)
4200m - 5:30.88 - (31.2)
4600m - 6:02.30 - (31.4)
5000m - 6:33.87 - (31.5)
18.03 0
22 142 Marian Cristian  ION ROU ROU 6:34.05200m - 19.27 - (19.2)
600m - 49.58 - (30.3)
1000m - 1:20.37 - (30.7)
1400m - 1:51.34 - (30.9)
1800m - 2:22.34 - (31.0)
2200m - 2:53.45 - (31.1)
2600m - 3:24.68 - (31.2)
3000m - 3:56.03 - (31.3)
3400m - 4:27.44 - (31.4)
3800m - 4:58.96 - (31.5)
4200m - 5:30.67 - (31.7)
4600m - 6:02.34 - (31.6)
5000m - 6:34.05 - (31.7)
18.21 0
23 76 Masashi  MICHISHITA JPN JPN 6:34.72200m - 19.14 - (19.1)
600m - 48.99 - (29.8)
1000m - 1:19.40 - (30.4)
1400m - 1:50.07 - (30.6)
1800m - 2:20.66 - (30.5)
2200m - 2:51.40 - (30.7)
2600m - 3:22.72 - (31.3)
3000m - 3:54.11 - (31.3)
3400m - 4:25.75 - (31.6)
3800m - 4:57.44 - (31.6)
4200m - 5:29.09 - (31.6)
4600m - 6:00.87 - (31.7)
5000m - 6:34.72 - (33.8)
18.88 0
24 4 Joshua  LOSE AUS AUS 6:35.22200m - 19.49 - (19.4)
600m - 49.86 - (30.3)
1000m - 1:20.96 - (31.1)
1400m - 1:52.38 - (31.4)
1800m - 2:23.43 - (31.0)
2200m - 2:54.80 - (31.3)
2600m - 3:26.35 - (31.5)
3000m - 3:57.92 - (31.5)
3400m - 4:29.64 - (31.7)
3800m - 5:01.27 - (31.6)
4200m - 5:32.83 - (31.5)
4600m - 6:04.03 - (31.2)
5000m - 6:35.22 - (31.1)
19.38 0
25 54 Moritz  GEISREITER GER GER 6:35.85200m - 19.73 - (19.7)
600m - 50.82 - (31.0)
1000m - 1:21.84 - (31.0)
1400m - 1:53.10 - (31.2)
1800m - 2:24.31 - (31.2)
2200m - 2:55.43 - (31.1)
2600m - 3:26.56 - (31.1)
3000m - 3:58.09 - (31.5)
3400m - 4:29.77 - (31.6)
3800m - 5:01.52 - (31.7)
4200m - 5:33.33 - (31.8)
4600m - 6:05.15 - (31.8)
5000m - 6:35.85 - (30.7)
20.01 0
26 10 Vitaly  MIKHAILOV BLR BLR 6:36.05200m - 19.12 - (19.1)
600m - 49.89 - (30.7)
1000m - 1:20.74 - (30.8)
1400m - 1:51.71 - (30.9)
1800m - 2:22.73 - (31.0)
2200m - 2:53.75 - (31.0)
2600m - 3:25.02 - (31.2)
3000m - 3:56.47 - (31.4)
3400m - 4:27.97 - (31.5)
3800m - 4:59.74 - (31.7)
4200m - 5:31.40 - (31.6)
4600m - 6:03.64 - (32.2)
5000m - 6:36.05 - (32.4)
20.21 0
27 154 Roger  SCHNEIDER SUI SUI 6:36.47200m - 19.56 - (19.5)
600m - 49.35 - (29.7)
1000m - 1:19.11 - (29.7)
1400m - 1:49.94 - (30.8)
1800m - 2:21.08 - (31.1)
2200m - 2:52.39 - (31.3)
2600m - 3:23.82 - (31.4)
3000m - 3:55.17 - (31.3)
3400m - 4:26.65 - (31.4)
3800m - 4:58.75 - (32.1)
4200m - 5:31.17 - (32.4)
4600m - 6:03.84 - (32.6)
5000m - 6:36.47 - (32.6)
20.63 0
28 22 Jay  MORRISON CAN CAN 6:37.55200m - 19.60 - (19.6)
600m - 50.22 - (30.6)
1000m - 1:21.35 - (31.1)
1400m - 1:53.02 - (31.6)
1800m - 2:24.71 - (31.6)
2200m - 2:55.82 - (31.1)
2600m - 3:27.02 - (31.2)
3000m - 3:57.89 - (30.8)
3400m - 4:28.98 - (31.0)
3800m - 5:00.21 - (31.2)
4200m - 5:31.91 - (31.7)
4600m - 6:04.38 - (32.4)
5000m - 6:37.55 - (33.1)
21.71 0
29 88 Kwun-Won  CHOI KOR KOR 6:39.40200m - 19.31 - (19.3)
600m - 49.74 - (30.4)
1000m - 1:19.70 - (29.9)
1400m - 1:49.56 - (29.8)
1800m - 2:19.57 - (30.0)
2200m - 2:50.02 - (30.4)
2600m - 3:20.91 - (30.8)
3000m - 3:52.97 - (32.0)
3400m - 4:25.91 - (32.9)
3800m - 4:59.40 - (33.4)
4200m - 5:32.37 - (32.9)
4600m - 6:05.61 - (33.2)
5000m - 6:39.40 - (33.7)
23.56 0
30 46 Niko  RÄSÄNEN FIN FIN 6:41.60200m - 19.38 - (19.3)
600m - 50.42 - (31.0)
1000m - 1:21.35 - (30.9)
1400m - 1:52.68 - (31.3)
1800m - 2:23.82 - (31.1)
2200m - 2:55.35 - (31.5)
2600m - 3:27.10 - (31.7)
3000m - 3:58.80 - (31.7)
3400m - 4:30.74 - (31.9)
3800m - 5:02.89 - (32.1)
4200m - 5:35.41 - (32.5)
4600m - 6:08.45 - (33.0)
5000m - 6:41.60 - (33.1)
25.76 0
31 30 Xin  JIN CHN CHN 6:41.83200m - 19.25 - (19.2)
600m - 49.68 - (30.4)
1000m - 1:20.45 - (30.7)
1400m - 1:51.05 - (30.6)
1800m - 2:21.63 - (30.5)
2200m - 2:52.89 - (31.2)
2600m - 3:24.66 - (31.7)
3000m - 3:56.61 - (31.9)
3400m - 4:29.26 - (32.6)
3800m - 5:01.90 - (32.6)
4200m - 5:34.74 - (32.8)
4600m - 6:08.18 - (33.4)
5000m - 6:41.83 - (33.6)
25.99 0
32 156 Daniel  FRIBERG SWE SWE 6:45.97200m - 19.61 - (19.6)
600m - 50.55 - (30.9)
1000m - 1:21.70 - (31.1)
1400m - 1:52.96 - (31.2)
1800m - 2:24.26 - (31.3)
2200m - 2:55.39 - (31.1)
2600m - 3:27.02 - (31.6)
3000m - 3:58.76 - (31.7)
3400m - 4:30.25 - (31.4)
3800m - 5:02.64 - (32.3)
4200m - 5:36.09 - (33.4)
4600m - 6:10.58 - (34.4)
5000m - 6:45.97 - (35.3)
30.13 0
33 67 Marco  CIGNINI ITA ITA 6:46.24200m - 19.35 - (19.3)
600m - 50.78 - (31.4)
1000m - 1:21.87 - (31.0)
1400m - 1:54.20 - (32.3)
1800m - 2:25.39 - (31.1)
2200m - 2:56.39 - (31.0)
2600m - 3:27.51 - (31.1)
3000m - 3:59.31 - (31.8)
3400m - 4:31.08 - (31.7)
3800m - 5:03.77 - (32.6)
4200m - 5:37.06 - (33.2)
4600m - 6:11.47 - (34.4)
5000m - 6:46.24 - (34.7)
30.40 0
34 38 Pavel  KULMA CZE CZE 6:46.39200m - 19.86 - (19.8)
600m - 50.54 - (30.6)
1000m - 1:21.16 - (30.6)
1400m - 1:52.09 - (30.9)
1800m - 2:23.46 - (31.3)
2200m - 2:55.27 - (31.8)
2600m - 3:27.35 - (32.0)
3000m - 3:59.69 - (32.3)
3400m - 4:32.41 - (32.7)
3800m - 5:05.50 - (33.0)
4200m - 5:39.02 - (33.5)
4600m - 6:12.91 - (33.8)
5000m - 6:46.39 - (33.4)
30.55 0
35 99 Galbaatar  UUGANBAATAR MGL MGL 6:49.82200m - 19.40 - (19.4)
600m - 50.04 - (30.6)
1000m - 1:21.08 - (31.0)
1400m - 1:52.86 - (31.7)
1800m - 2:24.43 - (31.5)
2200m - 2:55.75 - (31.3)
2600m - 3:27.44 - (31.6)
3000m - 3:59.77 - (32.3)
3400m - 4:32.72 - (32.9)
3800m - 5:06.26 - (33.5)
4200m - 5:40.66 - (34.4)
4600m - 6:15.61 - (34.9)
5000m - 6:49.82 - (34.2)
33.98 0
36 152 Jan  CAFLISCH SUI SUI 6:50.05200m - 20.25 - (20.2)
600m - 51.81 - (31.5)
1000m - 1:23.54 - (31.7)
1400m - 1:55.19 - (31.6)
1800m - 2:27.30 - (32.1)
2200m - 2:59.33 - (32.0)
2600m - 3:31.50 - (32.1)
3000m - 4:03.81 - (32.3)
3400m - 4:36.53 - (32.7)
3800m - 5:09.29 - (32.7)
4200m - 5:42.40 - (33.1)
4600m - 6:15.88 - (33.4)
5000m - 6:50.05 - (34.1)
34.21 0
37 171 Dmitry  OBATUROV KAZ KAZ 6:53.25200m - 19.79 - (19.7)
600m - 51.52 - (31.7)
1000m - 1:23.54 - (32.0)
1400m - 1:54.98 - (31.4)
1800m - 2:26.39 - (31.4)
2200m - 2:58.85 - (32.4)
2600m - 3:31.62 - (32.7)
3000m - 4:04.56 - (32.9)
3400m - 4:37.82 - (33.2)
3800m - 5:11.30 - (33.4)
4200m - 5:45.28 - (33.9)
4600m - 6:19.47 - (34.1)
5000m - 6:53.25 - (33.7)
37.41 0
38 6 Christian  PICHLER AUT AUT 6:55.93200m - 20.39 - (20.3)
600m - 51.62 - (31.2)
1000m - 1:23.42 - (31.8)
1400m - 1:54.84 - (31.4)
1800m - 2:26.22 - (31.3)
2200m - 2:57.51 - (31.2)
2600m - 3:29.00 - (31.4)
3000m - 4:00.76 - (31.7)
3400m - 4:33.67 - (32.9)
3800m - 5:07.97 - (34.3)
4200m - 5:43.84 - (35.8)
4600m - 6:20.17 - (36.3)
5000m - 6:55.93 - (35.7)
40.09 0
39 40 Asier Pena  ITURRIA ESP ESP 6:57.96200m - 19.93 - (19.9)
600m - 51.13 - (31.2)
1000m - 1:23.04 - (31.9)
1400m - 1:55.31 - (32.2)
1800m - 2:27.80 - (32.4)
2200m - 3:00.44 - (32.6)
2600m - 3:33.41 - (32.9)
3000m - 4:06.79 - (33.3)
3400m - 4:40.37 - (33.5)
3800m - 5:14.31 - (33.9)
4200m - 5:48.94 - (34.6)
4600m - 6:22.42 - (33.4)
5000m - 6:57.96 - (35.5)
42.12 0